Skip Page Navigation
NASA JPL Caltech
NASA Logo - Jet Propulsion Laboratory + View the NASA Portal
+ Near-Earth Object (NEO) Program
Search JPL
JPL Home Earth Solar System Stars & Galaxies Technology
JPL Solar System Dynamics
BODIES ORBITS EPHEMERIDES TOOLS PHYSICAL DATA DISCOVERY FAQ SITE MAP
JPL Small-Body Database Browser
Search: [ help ]  
(2012 QG42)
Classification: Apollo [NEO, PHA]          SPK-ID: 3608092
Ephemeris | Orbit Diagram | Orbital Elements | Physical Parameters | Close-Approach Data ]

[ hide orbit diagram ]
Orbit Diagram
Note: Make sure you have Java enabled on your browser to see the applet. This applet is provided as a 3D orbit visualization tool. The applet was implemented using 2-body methods, and hence should not be used for determining accurate long-term trajectories (over several years or decades) or planetary encounter circumstances. For accurate long-term ephemerides, please instead use our Horizons system.
Orbit Viewer

Additional Notes: the orbits shown in the applet are color coded. The planets are white lines, and the asteroid/comet is a blue line. The bright white line indicates the portion of the orbit that is above the ecliptic plane, and the darker portion is below the ecliptic plane. Likewise for the asteroid/comet orbit, the light blue indicates the portion above the ecliptic plane, and the dark blue the portion below the ecliptic plane.

Orbit Viewer applet originally written and kindly provided by Osamu Ajiki (AstroArts), and further modified by Ron Baalke (JPL).


Orbital Elements at Epoch 2456400.5 (2013-Apr-18.0) TDB
Reference: JPL 48 (heliocentric ecliptic J2000)
 Element Value Uncertainty (1-sigma)   Units 
e .3745506056482765 1.0509e-07  
a 1.025930805754936 1.7935e-07 AU
q .6416678011062004 1.0368e-07 AU
i 6.812740347295932 3.5736e-06 deg
node 344.9323286796992 3.0626e-06 deg
peri 116.0990152502815 2.2317e-05 deg
M 138.1415034871826 2.4866e-05 deg
tp 2456254.854453164027
(2012-Nov-23.35445316)
1.332e-05 JED
period 379.5557130722485
1.04
9.9531e-05
2.725e-07
d
yr
n .9484773581354943 2.4872e-07 deg/d
Q 1.410193810403672 2.4653e-07 AU
  Orbit Determination Parameters
   # obs. used (total)      2111  
   # delay obs. used      4  
   # Doppler obs. used      4  
   data-arc span      23 days  
   first obs. used      2012-08-26  
   last obs. used      2012-09-18  
   planetary ephem.      DE405  
   SB-pert. ephem.      SB405-CPV-2  
   condition code      1  
   fit RMS      .31958  
   data source      ORB  
   producer      Otto Matic  
   solution date      2013-Apr-29 12:16:15  

Additional Information
 Earth MOID = .013812 AU 
 T_jup = 5.889 
[ show covariance matrix ]

Ephemeris | Orbit Diagram | Orbital Elements | Physical Parameters | Close-Approach Data ]

Physical Parameter Table
Parameter Symbol Value Units Sigma Reference Notes
absolute magnitude H 20.691 mag .52472 12 autocmod 2.5b
rotation period rot_per 24.22 h n/a Asteroid Lightcurve DataBase (Rev. 2013-May-01) Published Reference List:
[Warner, B.D.; Baker, R.E.; Bartczak, P.; Bacci, P.; et al. (2013). Minor Planet Bul. 40, 25-26.]

[ show close-approach data ]
Ephemeris | Orbit Diagram | Orbital Elements | Physical Parameters | Close-Approach Data ]
ABOUT SSD CREDITS/AWARDS PRIVACY/COPYRIGHT GLOSSARY LINKS
FirstGov 2013-May-19 11:34 UT
(server date/time)  
NASA Home Page
Site Manager:   Donald K. Yeomans
Webmaster  Alan B. Chamberlin